Terug naar catalogus

CZ-6A DEB

ActiefPO
NORAD 64644·DEBRIS·🇨🇳 China

Gelanceerd Aug 6, 2024 vanaf Taiyuan Satellite Launch Center

Loading…

Volgende Passages (komende 24 uur)

TLE

VersSource: Space-Track

Epoch: Sep 13, 2026, 07:12 UTC

1 64644U 24140AEJ 26256.30019655  .00000045  00000-0  17134-4 0  9994
2 64644  89.0212 268.2427 0078543 280.8201  78.4151 14.11544558102116

Volg CZ-6A DEB in realtime met AllMySat

Download on the App Store